Location: Llanfaelog
(53.2333°N, 4.4667°W)
Time: 14:39:44
(UTC+00:00)

Daily predictions for brighter satellites

Satellite Brightness Start Highest point End
(mag) Time Altitude Azimuth Time Altitude Azimuth Time Altitude Azimuth
Cosmos 2056 Rocket 3.5 17:37:32 10° SSW 17:42:41 66° ESE 17:47:48 10° NNE
Meteor 2-10 3.9 17:38:34 10° S 17:43:38 68° E 17:48:38 10° NNE
Envisat 3.9 17:39:50 10° S 17:44:49 55° W 17:49:51 10° NNW
SAR-Lupe-4 4.4 17:41:59 10° NE 17:45:11 29° E 17:48:21 10° SSE
NOSS 2-1 (D) 3.8 17:43:43 10° S 17:46:43 32° SE 17:49:58 10° ENE
H-2A R/B 3.2 17:42:32 10° ESE 17:46:53 25° ENE 17:51:17 10° N
Cosmos 1328 4.3 17:43:37 10° N 17:47:21 38° ENE 17:51:04 10° SE
USA 215 3.4 17:41:22 10° E 17:47:53 72° NNE 17:54:25 10° WNW
COSMOS 2487 3.1 17:45:13 10° N 17:48:26 34° ENE 17:51:37 10° SE
Cosmos 1850 Rocket 4.1 17:43:58 10° NNW 17:49:12 58° ENE 17:54:27 10° SE
ARGOS 4.4 17:45:33 10° ESE 17:49:36 22° NE 17:53:39 10° N
Okean-O 3.2 17:46:17 10° SE 17:50:19 36° ENE 17:54:23 10° N
H-2A R/B 2.5 17:47:40 10° N 17:51:56 67° WNW 17:56:04 10° SSW
Meteor 1-21 Rocket 4.5 17:46:47 10° NNW 17:52:46 87° WSW 17:58:41 10° S
SeaSat 1 2.9 17:48:42 10° ESE 17:53:19 41° NE 17:57:57 10° NNW
Cosmos 1825 Rocket 4.1 17:52:22 10° N 17:56:33 37° ENE 18:00:41 10° SE
Cosmos 2098 Rocket 2.5 17:54:27 10° NNW 17:58:16 82° W 18:01:24 10° S
NOAA 11 4.2 17:53:18 10° SSE 17:58:45 86° ENE 18:04:14 10° NNW
Cosmos 1452 Rocket 4.1 17:54:57 10° S 17:59:44 37° ESE 18:04:34 10° NE
Cosmos 1300 4.3 17:58:34 10° ESE 18:00:53 16° E 18:03:13 10° NE
YAOGAN 1 3.2 17:57:36 10° SE 18:01:31 35° ENE 18:05:28 10° N
SAR-Lupe-1 4.5 17:59:43 10° NNE 18:03:10 41° E 18:06:35 10° S
Cosmos 304 Rocket 4.0 18:00:04 10° S 18:04:40 49° ESE 18:09:18 10° NE
Cosmos 1656 Rocket 3.8 18:01:46 10° S 18:07:11 57° ESE 18:12:44 10° NE
Cosmos 2297 Rocket 3.1 18:02:33 10° NNW 18:07:34 31° NE 18:12:08 12° E
Cosmos 1726 2.5 18:04:32 10° SSW 18:08:15 69° WNW 18:12:00 10° N
Cosmos 1624 Rocket 4.2 18:03:28 10° SSW 18:08:44 81° WNW 18:14:05 10° NNE
Cosmos 2266 Rocket 4.0 18:02:33 10° N 18:08:45 81° E 18:15:01 10° SSE
CZ-2C R/B 3.6 18:04:12 10° SE 18:09:43 46° ENE 18:15:09 10° N
Cosmos 1689 Rocket 2.7 18:07:27 10° NNE 18:10:09 33° E 18:12:49 10° SSE
Cosmos 2369 Rocket 2.3 18:05:01 10° SSW 18:10:42 87° WNW 18:16:29 10° NNE
Cosmos 1758 Rocket 3.6 18:07:30 10° N 18:11:57 63° ENE 18:16:19 10° SSE
Cosmos 1544 Rocket 4.1 18:08:42 10° SSW 18:13:01 64° WNW 18:17:24 10° N
Cosmos 1726 Rocket 4.4 18:15:11 10° SE 18:18:48 26° E 18:22:28 10° NNE
Cosmos 1818 3.8 18:13:54 10° SSW 18:19:08 51° SE 18:24:25 10° NE
USA 307 2.9 18:15:06 10° WSW 18:19:25 90° SSW 18:22:42 17° ENE
PSLV R/B 4.2 18:17:22 10° NNE 18:21:28 46° E 18:25:29 10° S
Meteor 2-21 4.4 18:17:28 10° N 18:23:42 77° ENE 18:29:51 10° SSE
Meteor 2-14 Rocket 4.4 18:17:32 10° N 18:23:44 74° ENE 18:29:52 10° SSE
USA 308 2.9 18:19:41 10° WSW 18:23:59 88° N 18:27:06 18° ENE
Cosmos 371 Rocket 3.7 18:20:13 10° SW 18:25:01 67° WNW 18:29:53 10° NNE
SKYMED 2 3.6 18:20:44 10° NNE 18:25:03 59° ESE 18:29:20 10° S
Cosmos 1953 2.7 18:21:23 10° SSW 18:25:19 67° WNW 18:29:18 10° N
Helios 1A Rocket 2.9 18:21:55 10° SSE 18:26:04 81° ENE 18:30:12 10° NNW
EP 3 4.0 18:24:14 10° WSW 18:26:10 54° NW 18:27:07 23° NNE
Cosmos 2219 3.8 18:21:17 10° NNW 18:26:41 39° NE 18:30:55 16° ESE
CSL-04 Debris 4.4 18:21:35 10° SE 18:26:48 50° ENE 18:32:04 10° N
Timation 2 Rocket 4.2 18:20:58 10° NNW 18:27:20 58° NE 18:33:56 10° SE
Ariane Rocket 4.2 18:26:42 17° E 18:29:03 23° NE 18:33:01 10° N
FALCON 9 DEB 3.7 18:26:04 10° SW 18:29:19 41° SSE 18:31:02 23° E
Cosmos 1606 Rocket 3.9 18:27:21 10° SSE 18:31:26 41° E 18:35:34 10° NNE
SL-4 R/B 2.7 18:28:13 10° SW 18:31:27 33° SSE 18:33:10 22° ESE
Geosat 4.4 18:26:42 10° NE 18:31:30 42° ESE 18:36:16 10° S
Genesis I 4.4 18:33:46 10° WSW 18:37:24 39° NW 18:41:00 10° NE
NOSS 2-1 (E) 2.9 18:36:15 10° SW 18:39:36 85° SE 18:42:16 18° NE
GEOS 3 Rocket 4.4 18:34:50 10° SSE 18:40:02 54° SW 18:45:21 10° NW
Cosmos 1340 3.4 18:36:57 10° N 18:40:24 32° ENE 18:41:40 26° ESE
Cosmos 1346 Rocket 4.1 18:38:15 10° NNE 18:41:13 21° ENE 18:41:13 21° ENE
Cosmos 332 Rocket 4.2 18:37:20 10° SW 18:42:14 67° WNW 18:47:10 10° NNE
Cosmos 2058 4.0 18:41:11 10° NNE 18:44:32 23° ENE 18:44:32 23° ENE
Cosmos 2278 Rocket 4.5 18:42:42 10° WNW 18:46:18 17° NNW 18:49:55 10° NNE
Cosmos 2058 Rocket 3.7 18:45:00 10° SSE 18:49:01 34° E 18:53:05 10° NNE
ERS-2 4.0 18:48:08 10° N 18:51:25 32° WNW 18:54:40 10° SW
Cosmos 1331 Rocket 4.3 18:47:27 10° S 18:52:14 40° ESE 18:57:03 10° NE
Cosmos 2228 2.8 18:48:41 10° S 18:52:53 69° E 18:57:09 10° NNE
Cosmos 1953 Rocket 3.4 18:48:44 10° N 18:53:08 82° E 18:57:32 10° SSE
Resurs 01 Rocket 3.7 18:54:26 12° NE 18:54:26 12° NE 18:55:32 10° NNE
Cosmos 1939 Rocket 4.2 18:50:21 10° S 18:54:11 42° W 18:57:58 10° NNW
CZ-4B R/B 3.5 18:52:19 10° N 18:55:16 29° WNW 18:58:07 10° SW
Meteor 2-16 Rocket 4.4 18:49:14 10° N 18:55:22 85° E 19:01:28 10° SSE
Cosmos 1356 Rocket 4.3 18:52:04 10° SSW 18:56:12 52° WNW 19:00:26 10° N
Cosmos 1408 4.2 18:54:35 10° NNE 18:56:22 20° NE 18:56:22 20° NE
MOS 1 Rocket 3.5 18:53:36 10° NNE 18:57:51 43° E 19:02:18 10° S
Cosmos 292 Rocket 4.4 18:53:59 10° SSE 18:58:14 33° ESE 18:59:05 30° E
NOSS 2-2 (E) 4.3 18:54:18 10° NW 18:59:28 79° NE 19:04:15 21° SE
Cosmos 1908 4.2 18:57:39 10° SSW 19:01:22 48° WNW 19:05:08 10° N
CZ-4 R/B 2.0 18:59:41 10° S 19:03:33 55° WSW 19:07:24 10° NNW
Aureole 3 Rocket 3.0 19:04:09 18° SSE 19:06:36 47° E 19:11:08 10° NNE
CZ-4C R/B 3.7 19:03:02 10° WNW 19:08:31 34° N 19:12:50 19° NE
NOSS 3-4 (A) 4.4 19:02:43 10° NW 19:08:48 39° NNE 19:12:18 25° ENE
NOSS 3-4 (C) 4.4 19:02:49 10° NW 19:08:54 39° NNE 19:12:24 25° ENE
ERBS 2.2 19:07:23 10° WSW 19:10:44 82° NNW 19:11:11 63° NE
Cosmos 2227 Rocket 2.3 19:05:19 10° NNW 19:10:55 56° NE 19:13:11 34° ESE
Cosmos 1486 Rocket 4.2 19:06:00 10° NNW 19:11:13 50° ENE 19:13:00 36° ESE
Cosmos 1943 Rocket 3.8 19:06:45 10° WSW 19:11:38 30° NW 19:16:31 10° NNE
COSMO-SKYMED 1 3.4 19:08:52 10° N 19:13:06 52° WNW 19:17:19 10° SW
USA 305 2.9 19:09:11 10° W 19:13:31 79° N 19:14:40 48° ENE
Cosmos 1110 Rocket 3.9 19:08:41 10° S 19:13:53 64° ESE 19:19:04 10° NNE
NOSS 2-2 (D) 4.2 19:10:18 10° NW 19:15:25 83° NE 19:19:03 29° SE
Cosmos 1892 2.7 19:14:02 10° N 19:17:51 58° ENE 19:17:51 58° ENE
DMSP B5D1-3 4.4 19:14:21 10° NNE 19:19:30 73° ESE 19:24:39 10° S
USA 306 2.9 19:15:12 10° W 19:19:30 79° N 19:20:24 54° ENE
Cosmos 1553 Rocket 4.0 19:14:44 10° S 19:21:00 60° E 19:27:12 10° NNE
ATLAS 5 CENTAUR R/B 2.6 19:16:57 10° WSW 19:21:06 44° NNW 19:24:08 20° NE
Lacrosse 5 2.0 19:17:48 10° WSW 19:22:53 73° NNW 19:24:49 38° ENE
Cosmos 968 Rocket 3.5 19:18:11 10° NNW 19:23:24 58° ENE 19:24:40 45° ESE
H-2A R/B 2.4 19:20:29 10° S 19:25:50 72° WSW 19:31:20 10° NNW
Okean-O 4.3 19:22:46 10° SSW 19:26:49 34° W 19:30:54 10° NNW
Cosmos 2263 Rocket 3.5 19:24:27 10° NNW 19:28:57 23° NNE 19:29:39 23° NE
ARGOS 3.1 19:23:50 10° SSE 19:29:16 85° WSW 19:34:45 10° NNW
CZ-2C R/B 3.5 19:25:25 10° NNE 19:29:06 33° ENE 19:29:06 33° ENE
SeaSat 1 3.4 19:26:05 10° S 19:30:50 45° WSW 19:35:35 10° NW
USA 215 3.4 19:27:26 29° SE 19:31:00 68° SSW 19:37:33 10° WNW
ATLAS 2AS CENTAUR R/B 3.6 19:23:51 10° NW 19:31:15 43° NNE 19:34:19 30° ENE
NOSS 2-1 (C) 4.2 19:28:40 10° W 19:31:54 39° NNW 19:33:00 31° N
BREEZE-M R/B 4.0 19:29:00 10° WSW 19:33:20 65° S 19:35:53 40° ESE
HJ-1C 4.3 19:32:10 29° SSW 19:33:32 48° W 19:36:49 10° NNW
SJ-6B 3.5 19:35:17 42° NNE 19:35:17 42° NNE 19:38:20 10° N
Cosmos 1241 Rocket 4.4 19:28:47 10° SW 19:35:09 89° NW 19:40:03 19° NE
CSL-04 Rocket 4.3 19:30:06 10° S 19:35:35 59° WSW 19:41:05 10° NNW
Cosmos 1300 3.3 19:32:20 10° SSW 19:36:07 57° WNW 19:39:54 10° N
NOSS 2-1 (D) 4.4 19:33:57 10° W 19:37:09 36° NNW 19:38:03 31° N
YAOGAN 1 4.3 19:33:43 10° SSW 19:37:39 33° W 19:41:35 10° NNW
Cosmos 1745 Rocket 3.9 19:35:09 10° N 19:41:27 83° E 19:45:39 23° SSE
OBJECT-B 3.8 19:50:28 10° N 19:50:28 10° N 19:50:29 10° N
Cosmos 2297 Rocket 2.3 19:46:29 10° NW 19:52:10 74° WSW 19:53:58 44° S
IRS-1A Rocket 4.1 19:52:24 48° SSE 19:54:06 88° ENE 19:59:42 10° NNW
Cosmos 2369 Rocket 4.1 19:50:49 10° W 19:55:32 26° NW 20:00:19 10° NNE
Cosmos 1825 4.1 19:54:36 10° N 19:56:03 22° N 19:56:03 22° N
USA 307 3.3 19:55:16 10° W 19:58:52 62° WNW 19:58:52 62° WNW
EO 1 Delta rocket 3.9 19:54:39 10° N 20:00:31 82° E 20:01:01 73° SSE
Cosmos 1076 Rocket 4.3 19:56:54 10° N 19:59:49 43° N 19:59:49 43° N
Cosmos 1818 4.4 19:57:34 10° WSW 20:02:49 47° NW 20:05:24 28° NNE
USA 308 3.5 19:59:51 10° W 20:03:16 56° WNW 20:03:16 56° WNW
Ariane Rocket 3.1 20:06:54 64° SSW 20:07:33 74° WSW 20:12:41 10° NNW
SL-4 R/B 3.7 20:07:02 10° WSW 20:08:45 26° WSW 20:08:45 26° WSW
Cosmos 2219 3.8 20:05:29 10° NW 20:11:04 53° WSW 20:12:52 39° SSW
Cosmos 1709 Rocket 3.9 20:05:47 10° N 20:12:10 82° E 20:12:55 70° SE
MOS 1 4.3 20:12:36 58° S 20:13:42 76° WSW 20:19:25 10° NNW
Cosmos 1346 Rocket 4.3 20:14:06 10° NNW 20:16:44 35° NW 20:16:44 35° NW
Terra 4.4 20:22:49 10° NNE 20:22:49 10° NNE 20:22:52 10° NNE
Cosmos 2058 4.3 20:17:44 10° NNW 20:20:45 37° WNW 20:20:45 37° WNW
Meteor 2-15 Rocket 4.4 20:22:40 45° SSW 20:24:42 83° W 20:30:54 10° N
Cosmos 2082 3.7 20:19:14 10° NNW 20:24:39 78° WNW 20:24:39 78° WNW
SPOT 3 Rocket 4.1 20:28:05 50° N 20:28:05 50° N 20:31:56 10° NNW
Resurs 01 Rocket 3.6 20:32:00 22° N 20:32:00 22° N 20:33:39 10° N
S3M 4.2 20:26:32 10° SSW 20:32:36 65° WNW 20:38:45 10° N
Cosmos 2227 Rocket 3.5 20:49:44 10° NW 20:54:45 34° WSW 20:55:02 34° WSW
CZ-4C R/B 3.3 20:52:09 10° NW 20:58:00 48° NNE 20:58:00 48° NNE
NOSS 3-4 (A) 3.9 20:53:50 10° NW 20:59:44 68° NNW 20:59:44 68° NNW
NOSS 3-4 (C) 3.9 20:53:57 10° NW 20:59:50 68° NNW 20:59:50 68° NNW
Lacrosse 5 3.6 21:01:19 10° WNW 21:04:02 30° WNW 21:04:02 30° WNW
ATLAS 5 CENTAUR R/B 3.8 21:02:52 10° WNW 21:05:40 24° NNW 21:05:40 24° NNW
CZ-2C R/B 3.8 21:05:47 10° N 21:10:35 41° NW 21:10:35 41° NW
COSMOS 2455 4.5 21:07:29 10° NW 21:11:41 25° N 21:11:41 25° N
Cosmos 2263 Rocket 3.6 21:08:09 10° NNW 21:11:20 34° NNW 21:11:20 34° NNW
SJ 16-02 4.3 21:11:59 10° NNW 21:12:13 11° N 21:12:13 11° N
ATLAS 2AS CENTAUR R/B 3.2 21:15:29 10° NW 21:21:44 61° NW 21:21:44 61° NW
CZ-4C R/B 4.5 22:40:39 10° NW 22:43:10 25° NW 22:43:10 25° NW
